This is the latest recevied weather packets stored in our database for station/object KD8UYA. If no packets are shown the sender has not sent any weather packets the latest 10 day(s).
| Time | Temp. | Humidity | Pressure | Rain* | Wind** | Luminosity | Snow |
|---|---|---|---|---|---|---|---|
| 1778134540 | 5.56° C | 88% | 1011.7 hPa | 0 mm | - | - | - |
| 1778133643 | 5.56° C | 87% | 1011.7 hPa | 0 mm | - | - | - |
| 1778132738 | 5.56° C | 86% | 1011.9 hPa | 0 mm | - | - | - |
| 1778131834 | 5.56° C | 87% | 1011.9 hPa | 0 mm | - | - | - |
| 1778130932 | 6.11° C | 87% | 1012 hPa | 0 mm | - | - | - |
| 1778130032 | 6.11° C | 86% | 1012 hPa | 0 mm | - | - | - |
| 1778129128 | 6.67° C | 87% | 1012.1 hPa | 0 mm | - | - | - |
| 1778128229 | 6.67° C | 88% | 1012.1 hPa | 0 mm | - | - | - |
| 1778127327 | 6.67° C | 89% | 1012.2 hPa | 0 mm | - | - | - |
| 1778126425 | 6.11° C | 90% | 1012.3 hPa | 0 mm | - | - | - |
| 1778125531 | 6.11° C | 90% | 1012.4 hPa | 0 mm | - | - | - |
| 1778124623 | 6.11° C | 89% | 1012.5 hPa | 0 mm | - | - | - |
| 1778123723 | 6.11° C | 86% | 1012.7 hPa | 0 mm | - | - | - |
| 1778122820 | 6.11° C | 84% | 1012.8 hPa | 0 mm | - | - | - |
| 1778121920 | 6.67° C | 82% | 1012.3 hPa | 0 mm | - | - | - |
| 1778121017 | 7.22° C | 83% | 1012.2 hPa | 0 mm | - | - | - |
| 1778120117 | 7.22° C | 83% | 1012.2 hPa | 0 mm | - | - | - |
| 1778119227 | 7.22° C | 82% | 1012.1 hPa | 0 mm | - | - | - |
| 1778118315 | 7.78° C | 80% | 1012.1 hPa | 0 mm | - | - | - |
| 1778117418 | 7.78° C | 80% | 1011.9 hPa | 0 mm | - | - | - |
| 1778116514 | 8.33° C | 78% | 1011.8 hPa | 0 mm | - | - | - |
| 1778115612 | 8.33° C | 76% | 1011.7 hPa | 0 mm | - | - | - |
| 1778114712 | 8.33° C | 75% | 1011.7 hPa | 0 mm | - | - | - |
| 1778113809 | 8.33° C | 74% | 1011.8 hPa | 0 mm | - | - | - |
| 1778112928 | 8.89° C | 72% | 1011.7 hPa | 0 mm | - | - | - |
* Rain latest hour (hover to see other rain measurements)
** Current wind speed in m/s (hover to see current wind gust speed)